Enigmes

Forum dédié aux énigmes et à toutes formes de jeux de logique.

Déconnexion

Tu n'es pas identifié sur Prise2tete : s'identifier.

accueil Accueil forum Forum
[+]

Jeux de réflexion

Ci-dessous se trouve une liste uniquement composée de jeux de réflexion mise à jour quotidiennement. Les Jeux flash sont les jeux les plus développés sur Internet, il en existe des millions, de tous genres, accessibles gratuitement.

Les jeux listés ici apportent tous un concept nouveau ou une amélioration des jeux de réflexion habituels. Que ce soient des jeux de logique pure, de construction, de réflexion, de stratégie, d'analyse, d'adresse, des casse-tête ou des variantes de jeux classiques type tetris, sokoban, ou de jeux de plateaux, ils sont tous ici à une condition : ils doivent faire réfléchir le joueur !
Sujet Réponses Vues Dernier message
2 2902 Inquisitive Dave sensini 17-07-2008 02:22:04
0 1664 Royal Feast 2 EfCeBa 15-07-2008 21:05:39
0 2179 Telekinetic Eric EfCeBa 14-07-2008 18:47:29
0 4768 Ragdoll Cannon 1.5 EfCeBa 14-07-2008 18:29:48
1 2527 Bloc's 2 littlemiss69 14-07-2008 17:17:17
1 3978 Blockoban littlemiss69 14-07-2008 17:13:53
6 2516 GridWorks littlemiss69 14-07-2008 17:05:58
1 3223 Small Fry littlemiss69 14-07-2008 17:02:50
0 2312 Flatliner EfCeBa 12-07-2008 11:50:23
0 2258 Kilogranimals (Lesson 3) EfCeBa 09-07-2008 22:21:43
0 2134 Gone like the clappers EfCeBa 09-07-2008 22:15:04
2 2002 Dead Reckoning Ropie 09-07-2008 16:02:56
0 2197 Deflection EfCeBa 08-07-2008 11:12:26
0 12242 Totem Destroyer EfCeBa 08-07-2008 11:03:32
0 6820 Teleporter Twins EfCeBa 07-07-2008 10:38:38
1 9534 Big Adventure in the Miraculous Forest ash00 06-07-2008 13:23:20
0 2131 Mysterious Rings Revamped EfCeBa 04-07-2008 10:45:54
0 4485 Button Hunt 3 EfCeBa 02-07-2008 09:49:27
1 4729 Poiser littlemiss69 29-06-2008 16:36:20
2 2398 Seek ver.0 littlemiss69 29-06-2008 16:32:09
6 2572 Marbly littlemiss69 29-06-2008 16:26:10
2 2966 Numbers littlemiss69 29-06-2008 16:15:34
13 2806 Continue PomaH 25-06-2008 19:05:01
0 2220 Deadly Investigation EfCeBa 24-06-2008 11:47:04
1 4664 Grid 16 Boumi 23-06-2008 10:43:46
1 2257 Atomyx 2 littlemiss69 22-06-2008 10:31:03
1 4014 Swinging Ball littlemiss69 22-06-2008 10:24:45
3 2292 Estiweight (Lesson 2) kosmogol 21-06-2008 19:24:32
0 3322 Neon Layers EfCeBa 21-06-2008 16:07:08
2 8073 Ragdoll Cannon NounouOgg 20-06-2008 18:25:18

Pied de page des forums

P2T basé sur PunBB
Screenshots par Robothumb

© Copyright 2002–2005 Rickard Andersson

Prise2Tete Forum Statistiques Liste des membres Hall of Fame Contact
© Prise2tete - Site d'énigmes et de réflexion.
Un jeu où seules la réflexion, la logique et la déduction permettent de trouver la solution.

Flux RSS de Prise2Tete Forum Jeux & Prise2Tete Test & Prise2Tete Partenariat et Publicité sur Prise2Tete